Weather History for Bradford, PA

Change the Weather History Date:

Friday, October 26, 2012

  Actual Average Record
Temperature  
Mean Temperature 61 °F 44 °F  
Max Temperature 72 °F 54 °F 76 °F (1991)
Min Temperature 50 °F 34 °F 19 °F (1987)
Degree Days  
Heating Degree Days 4 17  
Month to date heating degree days 348  
Since 1 July heating degree days 765  
Cooling Degree Days 0 0  
Month to date cooling degree days 0  
Year to date cooling degree days 192  
Growing Degree Days 11 (Base 50)    
Moisture  
Dew Point 51 °F    
Average Humidity 77    
Maximum Humidity 89    
Minimum Humidity 47    
Precipitation  
Precipitation 0.01 in 0.10 in 0.85 in (2010)
Month to date precipitation 2.89  
Year to date precipitation 36.76  
Sea Level Pressure  
Sea Level Pressure 30.09 in    
Wind  
Wind Speed 8 mph (South)    
Max Wind Speed 14 mph    
Max Gust Speed 22 mph    
Visibility 7 miles    
Events Rain    
T = Trace of Precipitation, MM = Missing Value Source: NWS Daily Summary

Daily Weather History Graph

Daily Weather History Graph

Search for Another Location

Airport:

Trip Planner

Search our weather history database for the weather conditions in past years. The results will help you decide how hot, cold, wet, or windy it might be!

Date:

Astronomy

Oct. 26, 2012 Rise Set
Actual Time 7:40 AM EDT 6:16 PM EDT
Civil Twilight 7:11 AM EDT 6:44 PM EDT
Nautical Twilight 6:38 AM EDT 7:17 PM EDT
Astronomical Twilight 6:06 AM EDT 7:49 PM EDT
Moon 4:32 PM EDT (10/26) 4:32 AM EDT (10/26)
Length of Visible Light 11h 33m
Length of Day
10h 35m
Waxing Gibbous, 91% of the Moon is Illuminated
Oct 26
Waxing Gibbous
Oct 29
Full
Nov 6
Last Quarter
Nov 13
New
Nov 20
First Quarter

Hourly Weather History & Observations

Time (EDT) Temp. Dew Point Humidity Pressure Visibility Wind Dir Wind Speed Gust Speed Precip Events Conditions
12:23 AM 57.0 °F 52.0 °F 83% 30.10 in 5.0 mi SSE 9.2 mph - N/A   Haze
12:40 AM 57.9 °F 52.0 °F 81% 30.10 in 5.0 mi SSE 12.7 mph 21.9 mph N/A   Haze
12:53 AM 57.0 °F 52.0 °F 83% 30.07 in 5.0 mi SSE 11.5 mph - N/A   Haze
1:53 AM 57.0 °F 52.0 °F 83% 30.07 in 5.0 mi SSE 6.9 mph - N/A   Haze
2:53 AM 57.0 °F 52.0 °F 83% 30.07 in 5.0 mi SE 8.1 mph - N/A   Haze
3:53 AM 57.0 °F 52.0 °F 83% 30.07 in 5.0 mi SSE 10.4 mph - N/A   Haze
4:53 AM 55.9 °F 52.0 °F 87% 30.08 in 5.0 mi SSE 6.9 mph - N/A   Clear
5:53 AM 55.9 °F 52.0 °F 87% 30.09 in 4.0 mi SSE 5.8 mph - N/A   Scattered Clouds
6:53 AM 55.9 °F 52.0 °F 87% 30.10 in 4.0 mi SSE 4.6 mph - N/A   Partly Cloudy
7:53 AM 55.9 °F 52.0 °F 87% 30.11 in 3.0 mi SSE 8.1 mph - N/A   Partly Cloudy
8:53 AM 57.9 °F 53.1 °F 84% 30.12 in 4.0 mi SSE 8.1 mph - N/A   Haze
9:53 AM 61.0 °F 53.1 °F 75% 30.12 in 6.0 mi SSE 10.4 mph 18.4 mph N/A   Haze
10:53 AM 63.0 °F 53.1 °F 70% 30.11 in 8.0 mi South 10.4 mph 19.6 mph N/A   Clear
11:53 AM 66.0 °F 52.0 °F 60% 30.11 in 10.0 mi SSW 8.1 mph - N/A   Clear
12:53 PM 69.1 °F 52.0 °F 54% 30.09 in 10.0 mi SSE 8.1 mph - N/A   Clear
1:53 PM 70.0 °F 51.1 °F 51% 30.06 in 10.0 mi WSW 5.8 mph - N/A   Partly Cloudy
2:53 PM 72.0 °F 51.1 °F 48% 30.04 in 10.0 mi SW 4.6 mph - N/A   Scattered Clouds
3:53 PM 71.1 °F 50.0 °F 47% 30.03 in 10.0 mi South 3.5 mph - N/A   Mostly Cloudy
4:53 PM 71.1 °F 50.0 °F 47% 30.02 in 10.0 mi SW 3.5 mph - N/A   Overcast
5:53 PM 64.0 °F 52.0 °F 65% 30.03 in 10.0 mi NNW 13.8 mph - N/A   Overcast
6:53 PM 60.1 °F 53.1 °F 78% 30.06 in 10.0 mi NW 6.9 mph - N/A   Overcast
7:38 PM 59.0 °F 52.0 °F 78% 30.10 in 10.0 mi NW 6.9 mph - N/A   Overcast
7:49 PM 57.2 °F 51.8 °F 82% 30.10 in 8.0 mi NNW 6.9 mph - 0.00 in Rain Light Rain
7:53 PM 57.0 °F 52.0 °F 83% 30.09 in 9.0 mi NNW 5.8 mph - 0.00 in Rain Light Rain
8:03 PM 57.0 °F 52.0 °F 83% 30.11 in 8.0 mi NW 6.9 mph - 0.00 in   Overcast
8:20 PM 55.9 °F 51.1 °F 84% 30.11 in 7.0 mi NNW 5.8 mph - 0.00 in   Overcast
8:53 PM 55.0 °F 50.0 °F 83% 30.11 in 8.0 mi NNW 9.2 mph - 0.00 in   Overcast
9:53 PM 53.1 °F 48.0 °F 83% 30.11 in 10.0 mi North 5.8 mph - N/A   Overcast
10:53 PM 50.0 °F 46.9 °F 89% 30.12 in 2.5 mi North 9.2 mph - 0.00 in Rain Light Rain
11:00 PM 50.0 °F 46.9 °F 89% 30.12 in 2.0 mi North 10.4 mph - 0.00 in Rain Light Rain
11:33 PM 50.0 °F 46.9 °F 89% 30.11 in 3.0 mi Variable 6.9 mph - 0.01 in Rain Light Rain
11:53 PM 50.0 °F 46.9 °F 89% 30.09 in 3.0 mi NNE 4.6 mph - 0.01 in   Overcast